Tracking 19831 objects as of 24-Aug-2019
HD Live streaming from Space Station
objects crossing your sky now

JILIN-01-08

Track JILIN-01-08 now!
10-day predictions


NORAD ID: 43160
Int'l Code: 2018-008F
Perigee: 536.0 km
Apogee: 551.9 km
Inclination: 97.5 °
Period: 95.4 minutes
Semi major axis: 6914 km
RCS: Unknown
Launch date: January 19, 2018
Source: People's Republic of China (PRC)
Launch site: Jiuquan Satellite Launch Center, China (JSC)
aabbcc
Your satellite tracking list
Your tracking list is empty




NASA's NSSDC Master Catalog

Two Line Element Set (TLE):
1 43160U 18008F   19235.90033065 -.00000236  00000-0 -10772-4 0  9991
2 43160  97.4802 305.8764 0011518 101.9311  13.8757 15.09803122 87749
Source of the keplerian elements: AFSPC